Weather History for KFDK - March, 2014

Change the Weather History Date:

Monday, March 10, 2014

  Actual Average (KHGR) Record (KHGR)
Temperature  
Mean Temperature 50 °F 39 °F  
Max Temperature 64 °F 48 °F 72 °F (2006)
Min Temperature 35 °F 30 °F 19 °F (2005)
Degree Days  
Heating Degree Days 16 26  
Month to date heating degree days 271  
Since 1 July heating degree days 4174  
Cooling Degree Days 0 0  
Month to date cooling degree days 0  
Year to date cooling degree days 0  
Moisture  
Dew Point 30 °F    
Average Humidity 58    
Maximum Humidity 75    
Minimum Humidity 34    
Precipitation  
Precipitation 0.00 in 0.09 in 0.71 in (2011)
Month to date precipitation 0.84  
Year to date precipitation 6.07  
Sea Level Pressure  
Sea Level Pressure 29.85 in    
Wind  
Wind Speed 7 mph (SSW)    
Max Wind Speed 15 mph    
Max Gust Speed 21 mph    
Visibility 10 miles    
Events      
T = Trace of Precipitation, MM = Missing Value Source: NWS Daily Summary

Daily Weather History Graph

Daily Weather History Graph

Search for Another Location

Airport or City:

Trip Planner

Search our weather history database for the weather conditions in past years. The results will help you decide how hot, cold, wet, or windy it might be!

Date:

Astronomy

Mar. 10, 2014 Rise Set
Actual Time 7:28 AM EDT 7:11 PM EDT
Civil Twilight 7:01 AM EDT 7:38 PM EDT
Nautical Twilight 6:30 AM EDT 8:09 PM EDT
Astronomical Twilight 5:59 AM EDT 8:40 PM EDT
Moon 1:54 PM EDT (3/10) 3:37 AM EDT (3/10)
Length of Visible Light 12h 36m
Length of Day
11h 42m
Waxing Gibbous, 70% of the Moon is Illuminated
Mar 10
Waxing Gibbous
Mar 16
Full
Mar 23
Last Quarter
Mar 30
New
Apr 7
First Quarter

Hourly Weather History & Observations

Time (EDT) Temp. Windchill Dew Point Humidity Pressure Visibility Wind Dir Wind Speed Gust Speed Precip Events Conditions
12:05 AM 39.2 °F 37.0 °F 26.6 °F 61% 30.03 in 10.0 mi WNW 3.5 mph - N/A   Clear
12:25 AM 37.4 °F 33.8 °F 26.6 °F 65% 30.02 in 10.0 mi SSW 4.6 mph - N/A   Clear
12:45 AM 37.4 °F 33.8 °F 26.6 °F 65% 30.02 in 10.0 mi SW 4.6 mph - N/A   Clear
1:05 AM 35.6 °F 31.7 °F 28.4 °F 75% 30.01 in 10.0 mi South 4.6 mph - N/A   Clear
1:25 AM 35.6 °F 32.8 °F 28.4 °F 75% 29.99 in 10.0 mi South 3.5 mph - N/A   Clear
1:45 AM 35.6 °F 32.8 °F 28.4 °F 75% 29.99 in 10.0 mi South 3.5 mph - N/A   Clear
2:05 AM 35.6 °F 32.8 °F 28.4 °F 75% 29.98 in 10.0 mi SSW 3.5 mph - N/A   Clear
2:25 AM 35.6 °F 31.7 °F 28.4 °F 75% 29.98 in 10.0 mi SSW 4.6 mph - N/A   Clear
2:45 AM 37.4 °F 32.8 °F 26.6 °F 65% 29.97 in 10.0 mi SSW 5.8 mph - N/A   Clear
3:05 AM 37.4 °F 30.8 °F 28.4 °F 70% 29.97 in 10.0 mi SW 9.2 mph - N/A   Clear
3:25 AM 37.4 °F 30.8 °F 26.6 °F 65% 29.95 in 10.0 mi SSW 9.2 mph - N/A   Clear
3:45 AM 37.4 °F 30.8 °F 28.4 °F 70% 29.95 in 10.0 mi SW 9.2 mph - N/A   Clear
4:05 AM 37.4 °F 30.8 °F 28.4 °F 70% 29.94 in 10.0 mi SW 9.2 mph - N/A   Clear
4:25 AM 37.4 °F 30.8 °F 28.4 °F 70% 29.93 in 10.0 mi SW 9.2 mph - N/A   Clear
4:45 AM 37.4 °F 30.3 °F 28.4 °F 70% 29.93 in 10.0 mi SW 10.4 mph - N/A   Clear
5:05 AM 39.2 °F 32.0 °F 26.6 °F 61% 29.94 in 10.0 mi SW 11.5 mph - N/A   Clear
5:25 AM 39.2 °F 32.5 °F 26.6 °F 61% 29.93 in 10.0 mi SW 10.4 mph - N/A   Clear
5:45 AM 37.4 °F 30.8 °F 26.6 °F 65% 29.92 in 10.0 mi SSW 9.2 mph - N/A   Clear
6:05 AM 37.4 °F 30.8 °F 28.4 °F 70% 29.92 in 10.0 mi SW 9.2 mph - N/A   Clear
6:25 AM 37.4 °F 30.3 °F 26.6 °F 65% 29.91 in 10.0 mi SW 10.4 mph - N/A   Clear
6:35 AM 37.4 °F 30.3 °F 26.6 °F 65% 29.91 in 10.0 mi SW 10.4 mph - N/A   Clear
6:40 AM 39.2 °F 32.0 °F 26.6 °F 61% 29.91 in 10.0 mi WSW 11.5 mph - N/A   Clear
7:50 AM 39.2 °F 32.5 °F 24.8 °F 56% 29.92 in 10.0 mi WSW 10.4 mph - N/A   Clear
8:45 AM 42.8 °F 38.0 °F 24.8 °F 49% 29.91 in 10.0 mi WSW 8.1 mph - N/A   Clear
9:45 AM 44.6 °F 41.4 °F 26.6 °F 49% 29.90 in 10.0 mi SW 5.8 mph - N/A   Mostly Cloudy
10:48 AM 51.8 °F - 30.2 °F 44% 29.89 in 10.0 mi SW 6.9 mph - N/A   Clear
11:47 AM 55.4 °F - 32.0 °F 41% 29.85 in 10.0 mi SW 5.8 mph - N/A   Clear
12:50 PM 59.0 °F - 33.8 °F 39% 29.83 in 10.0 mi SW 10.4 mph 17.3 mph N/A   Scattered Clouds
1:45 PM 62.6 °F - 35.6 °F 37% 29.78 in 10.0 mi WSW 9.2 mph 17.3 mph N/A   Clear
2:45 PM 64.4 °F - 35.6 °F 34% 29.74 in 10.0 mi WSW 12.7 mph 17.3 mph N/A   Clear
3:50 PM 64.4 °F - 35.6 °F 34% 29.72 in 10.0 mi SSW 12.7 mph 16.1 mph N/A   Scattered Clouds
4:50 PM 64.4 °F - 35.6 °F 34% 29.69 in 10.0 mi SSW 11.5 mph - N/A   Clear
5:50 PM 62.6 °F - 35.6 °F 37% 29.68 in 10.0 mi SSW 15.0 mph 20.7 mph N/A   Clear
6:50 PM 59.0 °F - 33.8 °F 39% 29.67 in 10.0 mi South 10.4 mph - N/A   Clear
8:50 PM 51.8 °F - 33.8 °F 50% 29.69 in 10.0 mi South 5.8 mph - N/A   Clear
9:10 PM 51.8 °F - 33.8 °F 50% 29.69 in 10.0 mi South 4.6 mph - N/A   Clear
9:30 PM 44.6 °F 41.4 °F 33.8 °F 66% 29.69 in 10.0 mi South 5.8 mph - N/A   Clear
9:50 PM 46.4 °F 44.3 °F 33.8 °F 62% 29.69 in 10.0 mi South 4.6 mph - N/A   Clear
10:10 PM 48.2 °F - 32.0 °F 54% 29.68 in 10.0 mi South 3.5 mph - N/A   Clear
10:30 PM 44.6 °F 41.4 °F 32.0 °F 61% 29.68 in 10.0 mi South 5.8 mph - N/A   Clear
10:50 PM 42.8 °F 41.1 °F 32.0 °F 66% 29.69 in 10.0 mi SSW 3.5 mph - N/A   Clear
11:10 PM 46.4 °F 43.5 °F 32.0 °F 57% 29.68 in 10.0 mi South 5.8 mph - N/A   Clear
11:30 PM 51.8 °F - 33.8 °F 50% 29.67 in 10.0 mi SSE 5.8 mph - N/A   Clear
11:50 PM 46.4 °F 44.3 °F 32.0 °F 57% 29.67 in 10.0 mi SSE 4.6 mph - N/A   Clear